| time (UTC) | temp F | wind direction | speed MPH | gust MPH | rain 1hr in | rain 24hr in | rain mn in | humidity % | barometer mb |
| 20260508015803 | 41 | 215 | 1.0 | 5.0 | 0.00 | 0.03 | 0.00 | 45 | 1015.2 |
| 20260508015306 | 42 | 175 | 0.0 | 3.0 | 0.00 | 0.03 | 0.00 | 45 | 1015.3 |
| 20260508014804 | 42 | 165 | 1.0 | 3.0 | 0.00 | 0.03 | 0.00 | 44 | 1015.3 |
| 20260508014303 | 42 | 162 | 1.0 | 3.0 | 0.00 | 0.03 | 0.00 | 45 | 1015.3 |
| 20260508013803 | 42 | 129 | 1.0 | 2.0 | 0.00 | 0.03 | 0.00 | 44 | 1015.3 |
| 20260508013303 | 42 | 134 | 1.0 | 3.0 | 0.00 | 0.03 | 0.00 | 44 | 1015.4 |
| 20260508012804 | 42 | 146 | 1.0 | 3.0 | 0.00 | 0.03 | 0.00 | 44 | 1015.4 |
| 20260508012307 | 42 | 166 | 1.0 | 5.0 | 0.00 | 0.03 | 0.00 | 44 | 1015.4 |
| 20260508011304 | 42 | 69 | 1.0 | 3.0 | 0.00 | 0.03 | 0.00 | 43 | 1015.5 |
| 20260508010804 | 42 | 132 | 2.0 | 3.0 | 0.00 | 0.03 | 0.00 | 44 | 1015.4 |
| 20260508010304 | 41 | 154 | 1.0 | 3.0 | 0.00 | 0.03 | 0.00 | 45 | 1015.5 |
| 20260508005804 | 41 | 141 | 0.0 | 2.0 | 0.00 | 0.03 | 0.00 | 45 | 1015.5 |
| 20260508005305 | 41 | 190 | 1.0 | 2.0 | 0.00 | 0.03 | 0.00 | 46 | 1015.5 |
| 20260508004804 | 41 | 163 | 1.0 | 2.0 | 0.00 | 0.03 | 0.00 | 46 | 1015.5 |
| 20260508004304 | 42 | 161 | 0.0 | 1.0 | 0.00 | 0.03 | 0.00 | 46 | 1015.5 |
| 20260508003803 | 42 | 160 | 1.0 | 2.0 | 0.00 | 0.03 | 0.00 | 45 | 1015.4 |
| 20260508003304 | 42 | 153 | 1.0 | 3.0 | 0.00 | 0.03 | 0.00 | 45 | 1015.5 |
| 20260508002804 | 42 | 158 | 1.0 | 3.0 | 0.00 | 0.03 | 0.00 | 44 | 1015.4 |
| 20260508002306 | 42 | 151 | 1.0 | 3.0 | 0.00 | 0.03 | 0.00 | 44 | 1015.5 |
| 20260508001804 | 41 | 191 | 0.0 | 1.0 | 0.00 | 0.03 | 0.00 | 48 | 1015.5 |
| 20260508000804 | 41 | 135 | 0.0 | 1.0 | 0.00 | 0.03 | 0.00 | 47 | 1015.5 |
| 20260508000305 | 41 | 188 | 0.0 | 2.0 | 0.00 | 0.03 | 0.00 | 47 | 1015.4 |
| 20260507235803 | 41 | 35 | 0.0 | 1.0 | 0.00 | 0.03 | 0.00 | 48 | 1015.6 |
| 20260507235306 | 41 | 35 | 0.0 | 3.0 | 0.00 | 0.03 | 0.00 | 48 | 1015.6 |
| 20260507234803 | 41 | 52 | 1.0 | 3.0 | 0.00 | 0.03 | 0.00 | 48 | 1015.5 |
| 20260507234304 | 41 | 141 | 1.0 | 3.0 | 0.00 | 0.03 | 0.00 | 49 | 1015.6 |
| 20260507233803 | 41 | 123 | 0.0 | 2.0 | 0.00 | 0.03 | 0.00 | 49 | 1015.5 |
| 20260507233303 | 41 | 25 | 0.0 | 2.0 | 0.00 | 0.03 | 0.00 | 49 | 1015.6 |
| 20260507232306 | 41 | 198 | 0.0 | 1.0 | 0.00 | 0.03 | 0.00 | 49 | 1015.6 |
| 20260507231804 | 41 | 197 | 0.0 | 3.0 | 0.00 | 0.03 | 0.00 | 49 | 1015.6 |
| 20260507231304 | 40 | 144 | 0.0 | 2.0 | 0.00 | 0.03 | 0.00 | 50 | 1015.7 |
| 20260507230803 | 40 | 99 | 0.0 | 1.0 | 0.00 | 0.03 | 0.00 | 49 | 1015.6 |
| 20260507230303 | 40 | 28 | 0.0 | 1.0 | 0.00 | 0.03 | 0.00 | 50 | 1015.6 |
| 20260507225803 | 40 | 28 | 0.0 | 1.0 | 0.00 | 0.03 | 0.00 | 50 | 1015.6 |
| 20260507225306 | 40 | 28 | 1.0 | 3.0 | 0.00 | 0.03 | 0.00 | 49 | 1015.6 |
| 20260507224303 | 39 | 272 | 0.0 | 2.0 | 0.00 | 0.03 | 0.00 | 52 | 1015.7 |
| 20260507223804 | 39 | 272 | 0.0 | 1.0 | 0.00 | 0.03 | 0.00 | 53 | 1015.6 |
| 20260507223304 | 38 | 272 | 0.0 | 1.0 | 0.00 | 0.03 | 0.00 | 53 | 1015.6 |
| 20260507222804 | 38 | 272 | 0.0 | 2.0 | 0.00 | 0.03 | 0.00 | 53 | 1015.8 |
| 20260507222306 | 38 | 270 | 2.0 | 3.0 | 0.00 | 0.03 | 0.00 | 56 | 1015.8 |
| 20260507221304 | 39 | 269 | 0.0 | 0.0 | 0.00 | 0.03 | 0.00 | 54 | 1015.9 |
| 20260507220804 | 39 | 269 | 0.0 | 0.0 | 0.00 | 0.03 | 0.00 | 54 | 1015.7 |
| 20260507220303 | 39 | 269 | 0.0 | 1.0 | 0.00 | 0.03 | 0.00 | 54 | 1015.8 |
| 20260507215804 | 38 | 269 | 0.0 | 2.0 | 0.00 | 0.03 | 0.03 | 55 | 1015.8 |
| 20260507215306 | 38 | 269 | 0.0 | 1.0 | 0.00 | 0.03 | 0.03 | 55 | 1015.9 |
| 20260507214804 | 38 | 269 | 0.0 | 1.0 | 0.00 | 0.03 | 0.03 | 54 | 1015.8 |
| 20260507214303 | 38 | 269 | 0.0 | 1.0 | 0.00 | 0.03 | 0.03 | 56 | 1015.7 |
| 20260507213803 | 38 | 269 | 0.0 | 1.0 | 0.00 | 0.03 | 0.03 | 54 | 1015.9 |
| 20260507213304 | 38 | 269 | 0.0 | 0.0 | 0.00 | 0.03 | 0.03 | 55 | 1015.9 |
| 20260507212803 | 38 | 269 | 0.0 | 0.0 | 0.00 | 0.03 | 0.03 | 56 | 1015.8 |
| 20260507211804 | 38 | 269 | 0.0 | 2.0 | 0.00 | 0.03 | 0.03 | 57 | 1016.0 |
| 20260507211304 | 38 | 269 | 1.0 | 3.0 | 0.00 | 0.03 | 0.03 | 59 | 1015.9 |
| 20260507210804 | 38 | 268 | 0.0 | 0.0 | 0.00 | 0.03 | 0.03 | 57 | 1015.9 |
| 20260507210304 | 38 | 268 | 0.0 | 1.0 | 0.00 | 0.03 | 0.03 | 58 | 1015.8 |
| 20260507205803 | 38 | 268 | 0.0 | 1.0 | 0.00 | 0.03 | 0.03 | 57 | 1015.8 |
| 20260507205306 | 38 | 268 | 0.0 | 0.0 | 0.00 | 0.03 | 0.03 | 57 | 1015.8 |
| 20260507204803 | 38 | 268 | 0.0 | 1.0 | 0.00 | 0.03 | 0.03 | 57 | 1015.9 |
| 20260507204304 | 38 | 268 | 0.0 | 1.0 | 0.00 | 0.03 | 0.03 | 56 | 1015.9 |
| 20260507203804 | 38 | 268 | 1.0 | 3.0 | 0.00 | 0.03 | 0.03 | 58 | 1015.9 |
| 20260507203303 | 38 | 270 | 1.0 | 2.0 | 0.00 | 0.03 | 0.03 | 57 | 1015.8 |
| 20260507202804 | 38 | 270 | 2.0 | 3.0 | 0.00 | 0.03 | 0.03 | 58 | 1015.9 |
| 20260507202306 | 38 | 276 | 0.0 | 2.0 | 0.00 | 0.03 | 0.03 | 58 | 1015.8 |
| 20260507200804 | 40 | 329 | 0.0 | 2.0 | 0.00 | 0.03 | 0.03 | 55 | 1015.8 |
| 20260507200303 | 41 | 91 | 0.0 | 1.0 | 0.00 | 0.03 | 0.03 | 54 | 1015.8 |
| 20260507195804 | 41 | 92 | 0.0 | 1.0 | 0.00 | 0.03 | 0.03 | 54 | 1015.8 |
| 20260507195305 | 41 | 85 | 0.0 | 0.0 | 0.00 | 0.03 | 0.03 | 53 | 1015.8 |
| 20260507194804 | 41 | 85 | 0.0 | 1.0 | 0.00 | 0.03 | 0.03 | 54 | 1015.8 |
| 20260507194304 | 42 | 85 | 0.0 | 0.0 | 0.00 | 0.03 | 0.03 | 53 | 1015.8 |
| 20260507193804 | 42 | 85 | 0.0 | 1.0 | 0.00 | 0.03 | 0.03 | 53 | 1015.8 |
| 20260507193304 | 43 | 85 | 0.0 | 0.0 | 0.00 | 0.03 | 0.03 | 51 | 1015.8 |
| 20260507192803 | 43 | 85 | 0.0 | 0.0 | 0.00 | 0.03 | 0.03 | 52 | 1015.8 |
| 20260507192306 | 43 | 85 | 0.0 | 0.0 | 0.00 | 0.03 | 0.03 | 50 | 1015.7 |
| 20260507191804 | 43 | 85 | 0.0 | 0.0 | 0.00 | 0.03 | 0.03 | 49 | 1015.7 |
| 20260507191304 | 44 | 85 | 0.0 | 0.0 | 0.00 | 0.03 | 0.03 | 49 | 1015.6 |
| 20260507190804 | 44 | 85 | 0.0 | 1.0 | 0.00 | 0.03 | 0.03 | 49 | 1015.6 |
| 20260507190304 | 44 | 85 | 0.0 | 1.0 | 0.00 | 0.03 | 0.03 | 46 | 1015.6 |
| 20260507185803 | 44 | 85 | 0.0 | 1.0 | 0.00 | 0.03 | 0.03 | 46 | 1015.4 |
| 20260507185306 | 44 | 85 | 0.0 | 0.0 | 0.00 | 0.03 | 0.03 | 44 | 1015.5 |
| 20260507184803 | 44 | 85 | 0.0 | 0.0 | 0.00 | 0.03 | 0.03 | 44 | 1015.5 |
| 20260507183804 | 44 | 85 | 0.0 | 1.0 | 0.00 | 0.03 | 0.03 | 45 | 1015.4 |
| 20260507182804 | 44 | 86 | 0.0 | 2.0 | 0.00 | 0.03 | 0.03 | 45 | 1015.4 |
| 20260507182306 | 45 | 110 | 1.0 | 2.0 | 0.00 | 0.03 | 0.03 | 44 | 1015.3 |
| 20260507181803 | 45 | 178 | 0.0 | 2.0 | 0.00 | 0.03 | 0.03 | 44 | 1015.3 |
| 20260507181304 | 45 | 187 | 1.0 | 2.0 | 0.00 | 0.03 | 0.03 | 43 | 1015.4 |
| 20260507180804 | 45 | 233 | 1.0 | 2.0 | 0.00 | 0.03 | 0.03 | 44 | 1015.4 |
| 20260507180304 | 46 | 233 | 0.0 | 1.0 | 0.00 | 0.03 | 0.03 | 43 | 1015.4 |
| 20260507175803 | 46 | 233 | 1.0 | 2.0 | 0.00 | 0.03 | 0.03 | 41 | 1015.4 |
| 20260507175306 | 45 | 250 | 0.0 | 1.0 | 0.00 | 0.03 | 0.03 | 42 | 1015.5 |
| 20260507174804 | 45 | 250 | 0.0 | 1.0 | 0.00 | 0.03 | 0.03 | 42 | 1015.4 |
| 20260507174304 | 45 | 250 | 0.0 | 1.0 | 0.00 | 0.03 | 0.03 | 43 | 1015.4 |
| 20260507173804 | 45 | 250 | 1.0 | 2.0 | 0.00 | 0.03 | 0.03 | 42 | 1015.4 |
| 20260507173303 | 45 | 254 | 0.0 | 1.0 | 0.00 | 0.03 | 0.03 | 43 | 1015.4 |
| 20260507172803 | 45 | 253 | 1.0 | 1.0 | 0.00 | 0.03 | 0.03 | 43 | 1015.3 |
| 20260507172307 | 45 | 245 | 1.0 | 2.0 | 0.00 | 0.03 | 0.03 | 43 | 1015.3 |
| 20260507171803 | 45 | 255 | 0.0 | 2.0 | 0.00 | 0.03 | 0.03 | 42 | 1015.2 |
| 20260507171304 | 45 | 231 | 0.0 | 2.0 | 0.00 | 0.03 | 0.03 | 42 | 1015.2 |
| 20260507170803 | 45 | 266 | 1.0 | 3.0 | 0.00 | 0.03 | 0.03 | 43 | 1015.3 |
| 20260507170303 | 45 | 252 | 1.0 | 3.0 | 0.00 | 0.03 | 0.03 | 43 | 1015.3 |
| 20260507165804 | 45 | 243 | 2.0 | 3.0 | 0.00 | 0.03 | 0.03 | 41 | 1015.3 |
| 20260507165306 | 46 | 209 | 2.0 | 3.0 | 0.00 | 0.03 | 0.03 | 42 | 1015.3 |
| 20260507164804 | 46 | 179 | 1.0 | 3.0 | 0.00 | 0.03 | 0.03 | 41 | 1015.3 |
| 20260507164304 | 46 | 198 | 2.0 | 3.0 | 0.00 | 0.03 | 0.03 | 41 | 1015.2 |
| 20260507163804 | 46 | 172 | 1.0 | 3.0 | 0.00 | 0.03 | 0.03 | 42 | 1015.3 |
| 20260507163303 | 46 | 79 | 0.0 | 2.0 | 0.00 | 0.03 | 0.03 | 42 | 1015.3 |
| 20260507162804 | 46 | 225 | 2.0 | 3.0 | 0.00 | 0.03 | 0.03 | 39 | 1015.3 |
| 20260507162306 | 46 | 172 | 1.0 | 3.0 | 0.00 | 0.03 | 0.03 | 40 | 1015.3 |
| 20260507161804 | 46 | 217 | 2.0 | 3.0 | 0.00 | 0.03 | 0.03 | 40 | 1015.4 |
| 20260507161304 | 46 | 198 | 1.0 | 5.0 | 0.00 | 0.03 | 0.03 | 39 | 1015.4 |
| 20260507160304 | 46 | 158 | 2.0 | 3.0 | 0.00 | 0.03 | 0.03 | 38 | 1015.5 |
| 20260507155804 | 46 | 187 | 1.0 | 3.0 | 0.00 | 0.03 | 0.03 | 41 | 1015.5 |
| 20260507155306 | 46 | 71 | 1.0 | 5.0 | 0.00 | 0.03 | 0.03 | 40 | 1015.5 |
| 20260507154803 | 46 | 39 | 2.0 | 5.0 | 0.00 | 0.03 | 0.03 | 40 | 1015.5 |
| 20260507154304 | 46 | 147 | 1.0 | 3.0 | 0.00 | 0.03 | 0.03 | 39 | 1015.5 |
| 20260507153803 | 46 | 111 | 2.0 | 3.0 | 0.00 | 0.03 | 0.03 | 40 | 1015.5 |
| 20260507152804 | 46 | 171 | 3.0 | 5.0 | 0.00 | 0.03 | 0.03 | 40 | 1015.5 |
| 20260507152306 | 46 | 54 | 2.0 | 6.0 | 0.00 | 0.03 | 0.03 | 39 | 1015.4 |
| 20260507151304 | 46 | 121 | 2.0 | 3.0 | 0.00 | 0.03 | 0.03 | 42 | 1015.5 |
| 20260507150804 | 46 | 87 | 2.0 | 6.0 | 0.00 | 0.03 | 0.03 | 40 | 1015.5 |
| 20260507150303 | 46 | 195 | 2.0 | 5.0 | 0.00 | 0.03 | 0.03 | 41 | 1015.5 |
| 20260507145803 | 46 | 148 | 3.0 | 5.0 | 0.00 | 0.03 | 0.03 | 41 | 1015.6 |
| 20260507145306 | 46 | 88 | 3.0 | 5.0 | 0.00 | 0.03 | 0.03 | 41 | 1015.4 |
| 20260507144304 | 46 | 29 | 3.0 | 10.0 | 0.00 | 0.03 | 0.03 | 40 | 1015.4 |
| 20260507143804 | 46 | 191 | 3.0 | 5.0 | 0.00 | 0.03 | 0.03 | 41 | 1015.5 |
| 20260507143304 | 46 | 138 | 3.0 | 9.0 | 0.00 | 0.03 | 0.03 | 40 | 1015.5 |
| 20260507142804 | 47 | 103 | 1.0 | 5.0 | 0.00 | 0.03 | 0.03 | 44 | 1015.5 |
| 20260507142306 | 47 | 85 | 2.0 | 7.0 | 0.00 | 0.03 | 0.03 | 43 | 1015.5 |
| 20260507141803 | 46 | 332 | 1.0 | 5.0 | 0.00 | 0.03 | 0.03 | 43 | 1015.5 |
| 20260507141303 | 47 | 210 | 3.0 | 6.0 | 0.00 | 0.03 | 0.03 | 40 | 1015.6 |
| 20260507140804 | 46 | 27 | 2.0 | 6.0 | 0.00 | 0.03 | 0.03 | 44 | 1015.5 |
| 20260507135804 | 46 | 216 | 3.0 | 7.0 | 0.00 | 0.03 | 0.03 | 41 | 1015.6 |
| 20260507135306 | 47 | 155 | 3.0 | 12.0 | 0.00 | 0.03 | 0.03 | 45 | 1015.6 |
| 20260507134804 | 45 | 235 | 2.0 | 8.0 | 0.00 | 0.03 | 0.03 | 43 | 1015.6 |
| 20260507134304 | 45 | 255 | 3.0 | 6.0 | 0.00 | 0.03 | 0.03 | 43 | 1015.7 |
| 20260507133803 | 46 | 222 | 3.0 | 5.0 | 0.00 | 0.03 | 0.03 | 43 | 1015.7 |
| 20260507133304 | 46 | 203 | 3.0 | 5.0 | 0.00 | 0.03 | 0.03 | 42 | 1015.7 |
| 20260507132804 | 46 | 22 | 1.0 | 3.0 | 0.00 | 0.03 | 0.03 | 45 | 1015.7 |
| 20260507132307 | 45 | 252 | 5.0 | 7.0 | 0.00 | 0.03 | 0.03 | 39 | 1015.7 |
| 20260507131804 | 46 | 249 | 2.0 | 10.0 | 0.00 | 0.03 | 0.03 | 45 | 1015.8 |
| 20260507131304 | 46 | 259 | 5.0 | 12.0 | 0.00 | 0.03 | 0.03 | 43 | 1015.8 |
| 20260507130304 | 45 | 274 | 5.0 | 12.0 | 0.00 | 0.03 | 0.03 | 44 | 1015.9 |
| 20260507125803 | 47 | 226 | 2.0 | 9.0 | 0.00 | 0.03 | 0.03 | 43 | 1015.8 |
| 20260507125306 | 47 | 228 | 4.0 | 9.0 | 0.00 | 0.03 | 0.03 | 42 | 1015.7 |
| 20260507124803 | 47 | 191 | 2.0 | 5.0 | 0.00 | 0.03 | 0.03 | 43 | 1015.8 |
| 20260507123803 | 46 | 279 | 2.0 | 8.0 | 0.00 | 0.03 | 0.03 | 44 | 1015.8 |
| 20260507123304 | 46 | 220 | 2.0 | 10.0 | 0.00 | 0.03 | 0.03 | 46 | 1015.7 |
| 20260507122803 | 45 | 180 | 3.0 | 8.0 | 0.00 | 0.03 | 0.03 | 44 | 1015.7 |
| 20260507122307 | 45 | 266 | 6.0 | 12.0 | 0.00 | 0.03 | 0.03 | 47 | 1015.7 |
| 20260507121804 | 45 | 251 | 6.0 | 12.0 | 0.00 | 0.03 | 0.03 | 48 | 1015.7 |
| 20260507121304 | 45 | 248 | 5.0 | 9.0 | 0.00 | 0.03 | 0.03 | 47 | 1015.7 |
| 20260507120803 | 47 | 224 | 3.0 | 9.0 | 0.00 | 0.03 | 0.03 | 48 | 1015.7 |
| 20260507120303 | 46 | 266 | 3.0 | 9.0 | 0.00 | 0.03 | 0.03 | 48 | 1015.7 |
| 20260507115803 | 47 | 263 | 3.0 | 7.0 | 0.00 | 0.03 | 0.03 | 50 | 1015.7 |
| 20260507115307 | 44 | 200 | 3.0 | 10.0 | 0.00 | 0.03 | 0.03 | 49 | 1015.8 |
| 20260507114804 | 45 | 270 | 4.0 | 10.0 | 0.00 | 0.03 | 0.03 | 48 | 1015.7 |
| 20260507114303 | 44 | 245 | 6.0 | 9.0 | 0.00 | 0.03 | 0.03 | 47 | 1015.8 |
| 20260507112804 | 46 | 244 | 3.0 | 6.0 | 0.00 | 0.03 | 0.03 | 46 | 1015.6 |
| 20260507112306 | 44 | 220 | 4.0 | 9.0 | 0.00 | 0.03 | 0.03 | 51 | 1015.7 |
| 20260507111804 | 43 | 249 | 3.0 | 9.0 | 0.00 | 0.03 | 0.03 | 48 | 1015.8 |
| 20260507111304 | 45 | 201 | 2.0 | 3.0 | 0.00 | 0.03 | 0.03 | 51 | 1015.8 |
| 20260507110803 | 45 | 196 | 2.0 | 5.0 | 0.00 | 0.03 | 0.03 | 50 | 1015.7 |
| 20260507110303 | 44 | 41 | 1.0 | 6.0 | 0.00 | 0.03 | 0.03 | 55 | 1015.7 |
| 20260507105804 | 44 | 240 | 2.0 | 5.0 | 0.00 | 0.03 | 0.03 | 56 | 1015.7 |
| 20260507104804 | 46 | 141 | 2.0 | 3.0 | 0.00 | 0.03 | 0.03 | 52 | 1015.5 |
| 20260507104304 | 47 | 273 | 2.0 | 7.0 | 0.00 | 0.03 | 0.03 | 55 | 1015.5 |
| 20260507103804 | 45 | 282 | 3.0 | 7.0 | 0.00 | 0.03 | 0.03 | 55 | 1015.5 |
| 20260507103303 | 43 | 273 | 5.0 | 9.0 | 0.00 | 0.03 | 0.03 | 60 | 1015.5 |
| 20260507102804 | 42 | 252 | 5.0 | 12.0 | 0.00 | 0.03 | 0.03 | 57 | 1015.4 |
| 20260507101804 | 44 | 27 | 2.0 | 8.0 | 0.00 | 0.03 | 0.03 | 60 | 1015.4 |
| 20260507101303 | 43 | 276 | 1.0 | 6.0 | 0.00 | 0.03 | 0.03 | 59 | 1015.4 |
| 20260507100303 | 43 | 224 | 1.0 | 7.0 | 0.00 | 0.03 | 0.03 | 56 | 1015.2 |
| 20260507095803 | 42 | 274 | 1.0 | 3.0 | 0.00 | 0.03 | 0.03 | 63 | 1015.2 |
| 20260507095306 | 44 | 227 | 4.0 | 9.0 | 0.00 | 0.03 | 0.03 | 56 | 1015.3 |
| 20260507094804 | 44 | 287 | 2.0 | 5.0 | 0.00 | 0.03 | 0.03 | 62 | 1015.4 |
| 20260507093804 | 42 | 187 | 1.0 | 2.0 | 0.00 | 0.03 | 0.03 | 62 | 1015.3 |
| 20260507092803 | 44 | 252 | 1.0 | 3.0 | 0.00 | 0.03 | 0.03 | 66 | 1015.3 |
| 20260507092306 | 40 | 272 | 2.0 | 8.0 | 0.00 | 0.03 | 0.03 | 70 | 1015.3 |
| 20260507091803 | 40 | 274 | 5.0 | 12.0 | 0.00 | 0.03 | 0.03 | 67 | 1015.3 |
| 20260507091303 | 40 | 184 | 2.0 | 5.0 | 0.00 | 0.03 | 0.03 | 65 | 1015.2 |
| 20260507090803 | 39 | 221 | 5.0 | 10.0 | 0.00 | 0.03 | 0.03 | 64 | 1015.2 |
| 20260507085804 | 40 | 231 | 2.0 | 5.0 | 0.00 | 0.03 | 0.03 | 68 | 1015.2 |
| 20260507085306 | 40 | 181 | 2.0 | 9.0 | 0.00 | 0.03 | 0.03 | 66 | 1015.1 |
| 20260507084804 | 41 | 62 | 2.0 | 5.0 | 0.00 | 0.03 | 0.03 | 67 | 1015.1 |
| 20260507084304 | 41 | 39 | 2.0 | 5.0 | 0.00 | 0.03 | 0.03 | 68 | 1015.1 |
| 20260507083303 | 39 | 192 | 2.0 | 6.0 | 0.00 | 0.03 | 0.03 | 71 | 1015.2 |
| 20260507082804 | 39 | 238 | 2.0 | 7.0 | 0.00 | 0.03 | 0.03 | 69 | 1015.1 |
| 20260507082306 | 39 | 206 | 3.0 | 5.0 | 0.00 | 0.03 | 0.03 | 70 | 1015.0 |
| 20260507081803 | 38 | 215 | 2.0 | 7.0 | 0.00 | 0.03 | 0.03 | 70 | 1015.0 |
| 20260507081304 | 38 | 250 | 3.0 | 5.0 | 0.00 | 0.03 | 0.03 | 70 | 1014.9 |
| 20260507080804 | 38 | 222 | 3.0 | 8.0 | 0.00 | 0.03 | 0.03 | 71 | 1015.0 |
| 20260507080304 | 39 | 264 | 2.0 | 3.0 | 0.00 | 0.03 | 0.03 | 70 | 1015.0 |
| 20260507075803 | 39 | 256 | 4.0 | 7.0 | 0.00 | 0.03 | 0.03 | 70 | 1014.9 |
| 20260507075306 | 40 | 253 | 1.0 | 3.0 | 0.00 | 0.03 | 0.03 | 74 | 1014.7 |
| 20260507074803 | 40 | 45 | 1.0 | 3.0 | 0.00 | 0.04 | 0.03 | 75 | 1014.7 |
| 20260507074304 | 40 | 52 | 2.0 | 5.0 | 0.00 | 0.04 | 0.03 | 75 | 1014.7 |
| 20260507073804 | 38 | 163 | 1.0 | 1.0 | 0.00 | 0.04 | 0.03 | 76 | 1014.7 |
| 20260507073304 | 38 | 91 | 1.0 | 3.0 | 0.00 | 0.04 | 0.03 | 77 | 1014.8 |
| 20260507072804 | 38 | 93 | 1.0 | 3.0 | 0.00 | 0.04 | 0.03 | 80 | 1014.8 |
| 20260507072306 | 39 | 130 | 1.0 | 5.0 | 0.01 | 0.04 | 0.03 | 77 | 1014.8 |
| 20260507071804 | 39 | 43 | 2.0 | 5.0 | 0.01 | 0.04 | 0.03 | 75 | 1014.8 |
| 20260507071304 | 39 | 25 | 1.0 | 5.0 | 0.01 | 0.04 | 0.03 | 79 | 1014.8 |
| 20260507065306 | 37 | 350 | 0.0 | 1.0 | 0.01 | 0.04 | 0.03 | 77 | 1014.7 |
| 20260507064804 | 37 | 18 | 0.0 | 3.0 | 0.01 | 0.04 | 0.03 | 80 | 1014.7 |
| 20260507064304 | 37 | 39 | 1.0 | 2.0 | 0.01 | 0.04 | 0.03 | 77 | 1014.7 |
| 20260507063803 | 36 | 40 | 0.0 | 2.0 | 0.01 | 0.04 | 0.03 | 81 | 1014.6 |
| 20260507063303 | 37 | 40 | 1.0 | 2.0 | 0.01 | 0.04 | 0.03 | 82 | 1014.5 |
| 20260507062306 | 35 | 2 | 0.0 | 1.0 | 0.01 | 0.04 | 0.02 | 87 | 1014.5 |
| 20260507061804 | 34 | 341 | 0.0 | 1.0 | 0.01 | 0.04 | 0.02 | 87 | 1014.6 |
| 20260507061303 | 34 | 341 | 0.0 | 1.0 | 0.02 | 0.04 | 0.02 | 87 | 1014.4 |
| 20260507060803 | 34 | 341 | 1.0 | 2.0 | 0.02 | 0.04 | 0.02 | 84 | 1014.4 |
| 20260507060304 | 34 | 252 | 0.0 | 1.0 | 0.02 | 0.04 | 0.02 | 79 | 1014.4 |
| 20260507055803 | 34 | 252 | 0.0 | 0.0 | 0.02 | 0.04 | 0.02 | 79 | 1014.3 |
| 20260507055306 | 34 | 252 | 0.0 | 0.0 | 0.02 | 0.04 | 0.02 | 80 | 1014.2 |
| 20260507054804 | 34 | 252 | 0.0 | 1.0 | 0.02 | 0.04 | 0.02 | 83 | 1014.3 |
| 20260507054304 | 34 | 252 | 0.0 | 1.0 | 0.02 | 0.04 | 0.02 | 84 | 1014.3 |
| 20260507053803 | 34 | 252 | 0.0 | 1.0 | 0.02 | 0.04 | 0.02 | 83 | 1014.2 |
| 20260507053303 | 34 | 252 | 0.0 | 1.0 | 0.02 | 0.04 | 0.02 | 85 | 1014.3 |
| 20260507052803 | 33 | 252 | 0.0 | 1.0 | 0.01 | 0.03 | 0.01 | 84 | 1014.2 |
| 20260507052306 | 33 | 253 | 0.0 | 1.0 | 0.01 | 0.03 | 0.01 | 85 | 1014.2 |
| 20260507051303 | 32 | 252 | 0.0 | 1.0 | 0.00 | 0.02 | 0.00 | 86 | 1014.1 |
| 20260507050304 | 32 | 254 | 1.0 | 2.0 | 0.00 | 0.02 | 0.00 | 87 | 1014.1 |
| 20260507044803 | 32 | 274 | 0.0 | 1.0 | 0.00 | 0.02 | 0.00 | 89 | 1014.1 |
| 20260507044304 | 32 | 272 | 0.0 | 1.0 | 0.00 | 0.02 | 0.00 | 89 | 1014.1 |
| 20260507043804 | 32 | 272 | 0.0 | 1.0 | 0.00 | 0.02 | 0.00 | 89 | 1014.0 |
| 20260507042804 | 32 | 267 | 0.0 | 0.0 | 0.00 | 0.02 | 0.00 | 89 | 1014.0 |
| 20260507042306 | 32 | 267 | 0.0 | 0.0 | 0.00 | 0.02 | 0.00 | 89 | 1014.1 |
| 20260507041803 | 32 | 267 | 0.0 | 0.0 | 0.00 | 0.02 | 0.00 | 89 | 1014.0 |
| 20260507040804 | 32 | 267 | 0.0 | 0.0 | 0.00 | 0.02 | 0.00 | 89 | 1014.0 |
| 20260507040303 | 32 | 267 | 0.0 | 1.0 | 0.00 | 0.02 | 0.00 | 88 | 1014.0 |
| 20260507035804 | 32 | 263 | 0.0 | 2.0 | 0.00 | 0.02 | 0.00 | 88 | 1014.0 |
| 20260507035306 | 32 | 274 | 0.0 | 1.0 | 0.00 | 0.02 | 0.00 | 88 | 1013.8 |
| 20260507034304 | 32 | 277 | 1.0 | 2.0 | 0.00 | 0.02 | 0.00 | 88 | 1013.7 |
| 20260507033804 | 32 | 308 | 0.0 | 1.0 | 0.00 | 0.02 | 0.00 | 88 | 1013.7 |
| 20260507033303 | 32 | 308 | 0.0 | 1.0 | 0.00 | 0.02 | 0.00 | 88 | 1013.7 |
| 20260507031804 | 32 | 310 | 0.0 | 1.0 | 0.00 | 0.02 | 0.00 | 88 | 1013.6 |
| 20260507031304 | 32 | 309 | 0.0 | 1.0 | 0.00 | 0.02 | 0.00 | 87 | 1013.6 |
| 20260507030803 | 32 | 309 | 0.0 | 1.0 | 0.00 | 0.02 | 0.00 | 87 | 1013.5 |
| 20260507030303 | 32 | 309 | 0.0 | 0.0 | 0.00 | 0.02 | 0.00 | 87 | 1013.5 |
| 20260507025803 | 32 | 309 | 0.0 | 0.0 | 0.00 | 0.02 | 0.00 | 87 | 1013.4 |
| 20260507025306 | 32 | 309 | 0.0 | 0.0 | 0.00 | 0.02 | 0.00 | 87 | 1013.4 |
| 20260507024304 | 32 | 310 | 0.0 | 1.0 | 0.00 | 0.02 | 0.00 | 87 | 1013.4 |
| 20260507023804 | 33 | 310 | 0.0 | 1.0 | 0.00 | 0.02 | 0.00 | 87 | 1013.4 |
| 20260507023303 | 33 | 310 | 0.0 | 0.0 | 0.00 | 0.02 | 0.00 | 86 | 1013.4 |
| 20260507022804 | 33 | 310 | 0.0 | 1.0 | 0.00 | 0.02 | 0.00 | 85 | 1013.3 |
| 20260507022306 | 33 | 310 | 0.0 | 0.0 | 0.00 | 0.02 | 0.00 | 84 | 1013.3 |
| 20260507021804 | 33 | 310 | 0.0 | 1.0 | 0.00 | 0.02 | 0.00 | 84 | 1013.3 |
| 20260507021303 | 34 | 317 | 0.0 | 1.0 | 0.00 | 0.02 | 0.00 | 82 | 1013.2 |
| 20260507020804 | 34 | 325 | 0.0 | 1.0 | 0.00 | 0.02 | 0.00 | 79 | 1013.1 |
| 20260507020304 | 34 | 3 | 0.0 | 1.0 | 0.00 | 0.02 | 0.00 | 79 | 1012.9 |